When you browse on this site, cookies collect data to enhance your experience and personalize the content and advertising you see.
Visit our Privacy Policy to learn more. By continuing to use the site, you agree to this use of cookies and data.
  • In Czech Republic
  • List of Countries
  • For 7 days
  • Water Temperature
  • Satellite Maps
  • Weather Map
  • Weather Widgets
  • user-avatar
    Login

    Hourly Weather Saint-Pierre i Miquelon

    Today, 19 April, Friday

    Time Temperature Precipitation Wind Pressure Humidity
    00:00 -2°C° 0 mm 4 mps 771 mmHg 73%
    01:00 -2°C° 0 mm 4 mps 771 mmHg 74%
    02:00 -2°C° 0 mm 4 mps 770 mmHg 75%
    03:00 -2°C° 0 mm 5 mps 770 mmHg 75%
    04:00 -2°C° 0 mm 5 mps 770 mmHg 76%
    05:00 -3°C° 0 mm 6 mps 770 mmHg 76%
    06:00 -2°C° 0 mm 6 mps 770 mmHg 73%
    07:00 -1°C° 0 mm 7 mps 770 mmHg 70%
    08:00 -1°C° 0 mm 8 mps 770 mmHg 67%
    09:00 -1°C° 0.3 mm 9 mps 769 mmHg 70%
    10:00 -1°C° 0.3 mm 9 mps 769 mmHg 73%
    11:00 -2°C° 0.3 mm 10 mps 768 mmHg 77%
    12:00 -2°C° 1.4 mm 11 mps 767 mmHg 82%
    13:00 -2°C° 1.4 mm 13 mps 766 mmHg 87%
    14:00 -2°C° 1.4 mm 14 mps 765 mmHg 92%
    15:00 -2°C° 2 mm 14 mps 764 mmHg 92%
    16:00 -1°C° 2 mm 15 mps 763 mmHg 92%
    17:00 -2°C° 2 mm 16 mps 763 mmHg 91%
    18:00 0°C° 0.7 mm 15 mps 762 mmHg 93%
    19:00 0°C° 0.7 mm 15 mps 762 mmHg 95%
    20:00 +1°C° 0.7 mm 14 mps 762 mmHg 97%
    21:00 +3°C° 0.1 mm 14 mps 761 mmHg 97%
    22:00 +3°C° 0.1 mm 14 mps 761 mmHg 97%
    23:00 +4°C° 0.1 mm 14 mps 761 mmHg 97%

    Tomorrow, 20 April, Saturday

    Time Temperature Precipitation Wind Pressure Humidity
    00:00 +4°C° 0.1 mm 14 mps 761 mmHg 97%
    01:00 +3°C° 0.1 mm 14 mps 761 mmHg 97%
    02:00 +3°C° 0.1 mm 14 mps 761 mmHg 97%
    03:00 +3°C° 0.1 mm 13 mps 761 mmHg 97%
    04:00 +3°C° 0.1 mm 12 mps 761 mmHg 98%
    05:00 +3°C° 0.1 mm 12 mps 762 mmHg 98%
    06:00 +3°C° 0.4 mm 11 mps 763 mmHg 98%
    07:00 +2°C° 0.4 mm 10 mps 763 mmHg 98%
    08:00 +2°C° 0.4 mm 9 mps 764 mmHg 98%
    09:00 +2°C° 0.1 mm 8 mps 765 mmHg 97%
    10:00 +2°C° 0.1 mm 8 mps 765 mmHg 97%
    11:00 +3°C° 0.1 mm 7 mps 766 mmHg 97%
    12:00 +3°C° 0.9 mm 6 mps 766 mmHg 97%
    13:00 +3°C° 0.9 mm 6 mps 767 mmHg 98%
    14:00 +3°C° 0.9 mm 5 mps 767 mmHg 98%
    15:00 +3°C° 0.3 mm 5 mps 767 mmHg 98%
    16:00 +5°C° 0.3 mm 4 mps 768 mmHg 98%
    17:00 +5°C° 0.3 mm 4 mps 768 mmHg 98%
    18:00 +4°C° 0.1 mm 4 mps 769 mmHg 98%
    19:00 +4°C° 0.1 mm 3 mps 769 mmHg 98%
    20:00 +4°C° 0.1 mm 3 mps 770 mmHg 98%
    21:00 +5°C° 0 mm 2 mps 771 mmHg 98%
    22:00 +5°C° 0 mm 2 mps 771 mmHg 98%
    23:00 +5°C° 0 mm 2 mps 771 mmHg 98%

    Day after tomorrow, 21 April, Sunday

    Time Temperature Precipitation Wind Pressure Humidity
    00:00 +5°C° 0 mm 2 mps 771 mmHg 98%
    01:00 +6°C° 0 mm 2 mps 771 mmHg 97%
    02:00 +6°C° 0 mm 2 mps 772 mmHg 97%
    03:00 +5°C° 0.3 mm 3 mps 772 mmHg 97%
    04:00 +5°C° 0.3 mm 3 mps 772 mmHg 98%
    05:00 +5°C° 0.3 mm 3 mps 773 mmHg 98%
    06:00 +5°C° 1 mm 4 mps 773 mmHg 98%
    07:00 +6°C° 1 mm 4 mps 773 mmHg 98%
    08:00 +6°C° 1 mm 5 mps 773 mmHg 98%
    09:00 +7°C° 0.1 mm 5 mps 773 mmHg 98%
    10:00 +7°C° 0.1 mm 5 mps 773 mmHg 98%
    11:00 +7°C° 0.1 mm 6 mps 773 mmHg 98%
    12:00 +7°C° 0.1 mm 6 mps 773 mmHg 98%
    13:00 +8°C° 0.1 mm 6 mps 773 mmHg 97%
    14:00 +9°C° 0.1 mm 6 mps 772 mmHg 97%
    15:00 +9°C° 0.1 mm 7 mps 772 mmHg 97%
    16:00 +9°C° 0.1 mm 7 mps 772 mmHg 98%
    17:00 +8°C° 0.1 mm 7 mps 772 mmHg 98%
    18:00 +7°C° 0 mm 8 mps 772 mmHg 98%
    19:00 +7°C° 0 mm 8 mps 772 mmHg 98%
    20:00 +7°C° 0 mm 8 mps 772 mmHg 98%
    21:00 +7°C° 0 mm 8 mps 772 mmHg 98%
    22:00 +6°C° 0 mm 9 mps 771 mmHg 98%
    23:00 +6°C° 0 mm 9 mps 771 mmHg 98%

    22 April, Monday

    Time Temperature Precipitation Wind Pressure Humidity
    00:00 +6°C° 0 mm 9 mps 771 mmHg 98%
    01:00 +7°C° 0.1 mm 10 mps 770 mmHg 98%
    02:00 +7°C° 0.1 mm 10 mps 770 mmHg 98%
    03:00 +7°C° 0.1 mm 10 mps 769 mmHg 98%
    04:00 +7°C° 0.1 mm 10 mps 769 mmHg 98%
    05:00 +7°C° 0.1 mm 11 mps 769 mmHg 98%
    06:00 +7°C° 0.1 mm 10 mps 769 mmHg 98%
    07:00 +7°C° 0.1 mm 10 mps 769 mmHg 97%
    08:00 +7°C° 0.1 mm 10 mps 769 mmHg 97%
    09:00 +6°C° 0.4 mm 10 mps 769 mmHg 97%
    10:00 +6°C° 0.4 mm 9 mps 768 mmHg 97%
    11:00 +5°C° 0.4 mm 8 mps 768 mmHg 98%
    12:00 +5°C° 0.3 mm 8 mps 768 mmHg 98%
    13:00 +5°C° 0.3 mm 8 mps 768 mmHg 98%
    14:00 +5°C° 0.3 mm 8 mps 768 mmHg 98%
    15:00 +5°C° 0.1 mm 8 mps 768 mmHg 98%
    16:00 +5°C° 0.1 mm 8 mps 768 mmHg 98%
    17:00 +6°C° 0.1 mm 7 mps 768 mmHg 98%
    18:00 +6°C° 0.1 mm 7 mps 768 mmHg 98%
    19:00 +6°C° 0.1 mm 7 mps 768 mmHg 98%
    20:00 +6°C° 0.1 mm 7 mps 768 mmHg 98%
    21:00 +6°C° 0.3 mm 7 mps 768 mmHg 98%
    22:00 +8°C° 0.3 mm 7 mps 767 mmHg 98%
    23:00 +8°C° 0.3 mm 7 mps 767 mmHg 98%

    23 April, Tuesday

    Time Temperature Precipitation Wind Pressure Humidity
    00:00 +8°C° 0.2 mm 7 mps 766 mmHg 98%
    01:00 +8°C° 0.2 mm 7 mps 766 mmHg 98%
    02:00 +7°C° 0.2 mm 8 mps 766 mmHg 98%
    03:00 +7°C° 0 mm 8 mps 766 mmHg 98%
    04:00 +7°C° 0 mm 8 mps 766 mmHg 98%
    05:00 +6°C° 0 mm 8 mps 765 mmHg 98%
    06:00 +6°C° 0 mm 8 mps 765 mmHg 98%
    07:00 +6°C° 0 mm 8 mps 765 mmHg 98%
    08:00 +7°C° 0 mm 8 mps 765 mmHg 98%
    09:00 +7°C° 0 mm 8 mps 765 mmHg 96%
    10:00 +9°C° 0 mm 8 mps 765 mmHg 94%
    11:00 +9°C° 0 mm 8 mps 765 mmHg 93%
    12:00 +9°C° 0.1 mm 7 mps 765 mmHg 94%
    13:00 +8°C° 0.1 mm 7 mps 764 mmHg 95%
    14:00 +6°C° 0.1 mm 7 mps 764 mmHg 96%
    15:00 +7°C° 0.2 mm 6 mps 764 mmHg 97%
    16:00 +6°C° 0.2 mm 5 mps 764 mmHg 97%
    17:00 +6°C° 0.2 mm 5 mps 764 mmHg 97%
    18:00 +6°C° 0.1 mm 4 mps 764 mmHg 98%
    19:00 +7°C° 0.1 mm 3 mps 764 mmHg 98%
    20:00 +8°C° 0.1 mm 2 mps 764 mmHg 99%
    21:00 +7°C° 0.1 mm 3 mps 764 mmHg 98%
    22:00 +6°C° 0.1 mm 4 mps 763 mmHg 97%
    23:00 +5°C° 0.1 mm 5 mps 763 mmHg 97%

    24 April, Wednesday

    Time Temperature Precipitation Wind Pressure Humidity
    00:00 +3°C° 0.4 mm 6 mps 762 mmHg 95%
    01:00 +2°C° 0.4 mm 7 mps 762 mmHg 94%
    02:00 0°C° 0.4 mm 8 mps 762 mmHg 93%
    03:00 0°C° 0.8 mm 9 mps 761 mmHg 92%
    04:00 -1°C° 0.8 mm 11 mps 761 mmHg 92%
    05:00 -1°C° 0.8 mm 12 mps 760 mmHg 92%
    06:00 -1°C° 0.3 mm 12 mps 760 mmHg 91%
    07:00 -1°C° 0.3 mm 12 mps 760 mmHg 91%
    08:00 -1°C° 0.3 mm 12 mps 759 mmHg 91%
    09:00 -1°C° 0.2 mm 12 mps 759 mmHg 90%
    10:00 -1°C° 0.2 mm 12 mps 758 mmHg 89%
    11:00 0°C° 0.2 mm 12 mps 758 mmHg 89%
    12:00 -1°C° 1 mm 12 mps 757 mmHg 89%
    13:00 -1°C° 1 mm 12 mps 757 mmHg 90%
    14:00 -1°C° 1 mm 12 mps 756 mmHg 90%
    15:00 -1°C° 3.3 mm 12 mps 756 mmHg 90%
    16:00 -1°C° 3.3 mm 11 mps 756 mmHg 90%
    17:00 -1°C° 3.3 mm 11 mps 756 mmHg 90%
    18:00 -1°C° 0.4 mm 11 mps 756 mmHg 90%
    19:00 0°C° 0.4 mm 10 mps 757 mmHg 89%
    20:00 0°C° 0.4 mm 10 mps 757 mmHg 88%
    21:00 0°C° 0 mm 9 mps 757 mmHg 88%
    22:00 0°C° 0 mm 9 mps 757 mmHg 88%
    23:00 0°C° 0 mm 8 mps 756 mmHg 88%
    Show more